SL-16 DEB, 22616

Orbit data source: Space-Track

SL-16 DEB, 22616 is space debris in LEO originally from a launch on Fri, 26 Mar 1993 UTC launched from the Tyuratam Missile And Space Complex (TTMTR). Debris objects in space refer to the collection of defunct objects orbiting the Earth. Examples of debris include non-operational satellites, rocket bodies, and fragments generated from explosions, collisions, or faulty payload assembly.

Loading next visibility...
Identifier
22616, 1993-016AA
Orbit
LEO
Country
Flag of CISCIS
Related business
Manufacturer
Unknown
Mission
Spacecraft
Bus & Motor
Unknown
Mass
Unknown
Launch date (UTC)
1993-03-26 (33 years ago)
Launch vehicle
Unknown
Launch site
Tyuratam Missile And Space Complex (TTMTR)
Object type
Payload
Rocket body
Debris
Shape & HBR
Unknown shape, 0.1 m
Radar Cross Section
Small (<0.1 m²)

Expand to show TLE details & history
Last TLE update: 11 hours ago

TLE from 11 hours ago
0 SL-16 DEB
1 22616U 93016AA  25295.61030051  .00000165  00000-0  19481-3 0  9993
2 22616  70.9985   4.4758 0185992 155.6346 354.7464 13.73957547632453
Epoch: 2025-10-22T14:38Z
TLE epoch observation values (Epoch: 2025-10-22T14:38:49.964Z)
Latitude
28.09839°
Longitude
-77.05153°
Altitude
851.926 km
Speed
7.498 km/s
True Right ascension
11h 35m 45s
True Declination
27° 57' 27"
Sunlit
Object was in daylight at epoch
Visualization orbit readout
Latitude
Unknown
Longitude
Unknown
Altitude
Unknown
Speed
Unknown
Apparent Right ascension
Unknown
Apparent Declination
Unknown
Sunlit
N/A
Visualization observer readout
Local Sidereal Time
20:17:04
Azimuth
Unknown
Elevation
Unknown
Doppler factor
Unknown
Orbital elements
Apogee altitude
1,120.279 km
Perigee altitude
846.444 km
Semi-major axis
7,361.498 km
Eccentricity
0.0186
Inclination
70.9985°
RAAN
4.4758°
Arg. of periapsis
155.6346°
True anomaly
354.54663°
Mean anomaly
354.7464°
Eccentric anomaly
354.64698°
Mean motion
3.43632 °/min
Orbital period
104.76 mins
BSTAR
0.00019481
Loading maneuver chart data...
Computing Atmospheric mass density...
Loading historical data...
Loading historical data...
Loading historical data...
Loading historical data...
Loading historical data...
Loading historical data...
Loading historical data...

Documentation

Showing up to 5 results
|